Tracking 23762 objects as of 21-Oct-2021
HD Live streaming from Space Station
objects crossing your sky now

COSMOS 397 DEB

Track COSMOS 397 DEB now!
10-day predictions


NORAD ID: 5018
Int'l Code: 1971-015M
Perigee: 575.6 km
Apogee: 2,124.6 km
Inclination: 65.7 °
Period: 112.5 minutes
Semi major axis: 7721 km
RCS: 0.1181 m2 (medium)
Launch date: February 25, 1971
Source: Commonwealth of Independent States (former USSR) (CIS)
Launch site: TYURATAM MISSILE AND SPACE COMPLEX (TTMTR)

Note: This is SATELLITE DEBRIS
aabbcc
Your satellite tracking list
Your tracking list is empty




NASA's NSSDC Master Catalog

Two Line Element Set (TLE):
1  5018U 71015M   21294.14520776 -.00000001  00000-0  36275-4 0  9997
2  5018  65.7104 165.5135 1003079 175.7928 185.2380 12.79620517361720
Source of the keplerian elements: AFSPC